DECAYED

STARLINK-5619, 55755 (Decayed)

Orbit data source: Space-Track

STARLINK-5619, 55755 was a payload satellite owned by SpaceX/Seattle (US) in LEO that was launched on Fri, 03 Mar 2023 UTC via an FALCON 9 launch vehicle from the Air Force Western Test Range (AFWTR). Payload-class satellites include a variety of spacecraft equipped with specific instruments for various scientific and technological missions. These include communications satellites like Starlink; space stations such as the ISS; scientific satellites like the Hubble; Earth observation satellites from companies like Planet Labs, Umbra, and HawkEye 360; GPS; miniature CubeSats for education and research; and military/defense satellites.

Not visible in the next 10 days
Identifier
55755, 2023-028Q
Orbit
Decayed
Country
Flag of USUS
Related business
Manufacturer
SpaceX/Seattle
Mission
Decayed Commercial Communications
Bus & Motor
STARLINK, Unknown motor
Mass
305 kg wet, ~290 kg dry
Launch date (UTC)
2023-03-03 (3 years ago)
Launch vehicle
FALCON 9
Launch site
Air Force Western Test Range (AFWTR)
Object type
Payload
Rocket body
Debris
Shape & HBR
Box + 1 Pan, 10.1 m
Radar Cross Section
11.087 m², Large (>1 m²)

Expand to show TLE details & history
Last TLE update: 4 months ago

TLE from 4 months ago
0 STARLINK-5619
1 55755U 23028Q   26038.70950157  .13192168  45151-5  17907-3 0  9994
2 55755  69.9796 302.7164 0007926 229.3919 130.6628 16.48838805161978
Epoch: 2026-02-07T17:01Z
TLE epoch observation values (Epoch: 2026-02-07T17:01:40.935Z)
Latitude
Longitude
-90.53329°
Altitude
148.348 km
Speed
7.815 km/s
True Right ascension
20h 10m 51s
True Declination
0° 00' 00"
Sunlit
Object was in daylight at epoch
Visualization orbit readout
Latitude
Unknown
Longitude
Unknown
Altitude
Unknown
Speed
Unknown
Apparent Right ascension
Unknown
Apparent Declination
Unknown
Sunlit
N/A
Visualization observer readout
Local Sidereal Time
00:39:36
Azimuth
Unknown
Elevation
Unknown
Doppler factor
Unknown
Orbital elements
Apogee altitude
145.376 km
Perigee altitude
135.044 km
Semi-major axis
6,518.347 km
Eccentricity
0.00079
Inclination
69.9796°
RAAN
302.7164°
Arg. of periapsis
229.3919°
True anomaly
130.73165°
Mean anomaly
130.6628°
Eccentric anomaly
130.69723°
Mean motion
4.12417 °/min
Orbital period
87.29 mins
BSTAR
0.00017907
Loading maneuver chart data...
Computing Atmospheric mass density...
Loading historical data...
Loading historical data...
Loading historical data...
Loading historical data...
Loading historical data...
Loading historical data...
Loading historical data...

Documentation

Showing up to 5 results
|